Location: Kumla
(59.1265°N, 15.1401°E)
Time: 22:36:44
(UTC+01:00)

Vanguard 1 - Pass Details

Date: 08 December 2023
Orbit: 653 x 3825 km, 34.3° (Epoch: 04 March)

Event Time Altitude Azimuth Distance (km) Brightness Sun altitude
Rises 18:53:32 0° 236° (WSW) 5,957 14.9 -27.3°
Reaches altitude 10° 18:57:36 10° 227° (SW) 5,361 14.3 -27.8°
Maximum altitude 19:11:34 32° 173° (S) 4,843 13.4 -29.6°
Enters shadow 19:21:33 23° 138° (SE) 5,794 13.5 -30.9°
